Location: Celina Elementary School
(33.3262°N, 96.7767°W)
Time: 08:53:47
(UTC+00:00)

OAO 3 Rocket - Pass Details

Date: 26 November 2021
Orbit: 628 x 682 km, 35.0° (Epoch: 19 January)

Event Time Altitude Azimuth Distance (km) Brightness Sun altitude
Exits shadow 12:12:59 16° 277° (W) 1,757 4.7 -11.7°
Maximum altitude 12:16:58 72° 0° (N) 711 3.3 -10.9°
Drops below altitude 10° 12:21:52 10° 85° (E) 2,092 7.0 -9.9°
Sets 12:24:14 0° 88° (E) 2,997 8.1 -9.4°
